Stations météo

réclame
Mon MeteoGroup
UFS TW Ems, Allemagne (10004): Température de l'air & dewpoint: 08.12.2018 12:00:00 - 14.12.2018 12:00:00 (CET)UFS TW Ems, Allemagne (10004): Vitesse du vent & gusts: 08.12.2018 12:00:00 - 14.12.2018 12:00:00 (CET)UFS TW Ems, Allemagne (10004): Direction du vent: 08.12.2018 12:00:00 - 14.12.2018 12:00:00 (CET)UFS TW Ems, Allemagne (10004): reduced air pressure: 08.12.2018 12:00:00 - 14.12.2018 12:00:00 (CET)UFS TW Ems, Allemagne (10004): visibility: 08.12.2018 12:00:00 - 14.12.2018 12:00:00 (CET)UFS TW Ems, Allemagne (10004): Ensoleillement: 08.12.2018 12:00:00 - 14.12.2018 12:00:00 (CET)
Date & Time tt [°C] td [°C] ff [km/h] ff [knt] fx [km/h] fx [knt] dd ppp [hPa] vv [km] sd [min]
14.12.2018 12:00:00 - - - - - - - - - -
14.12.2018 11:00:00 5,0 -0,1 29 16 - - E 1026,7 10 0
14.12.2018 10:00:00 5,2 0,6 29 16 - - E 1026,6 10 0
14.12.2018 09:00:00 5,1 0,2 32 18 - - E 1026,1 10 0
14.12.2018 08:00:00 5,2 0,0 32 18 - - E 1025,6 10 0
14.12.2018 07:00:00 5,2 0,7 36 19 - - E 1025,5 10 0
14.12.2018 06:00:00 5,1 1,0 36 19 47 25 E 1025,3 10 0
14.12.2018 05:00:00 4,7 1,5 40 21 54 29 E 1025,3 10 0
14.12.2018 04:00:00 3,2 1,0 29 16 - - E 1025,5 10 0
14.12.2018 03:00:00 - - - - - - - - - -
14.12.2018 02:00:00 2,9 0,9 40 21 50 27 SE 1025,7 10 0
14.12.2018 01:00:00 5,5 1,3 36 19 - - ESE 1025,1 10 0
14.12.2018 00:00:00 3,4 2,8 29 16 54 29 SSE 1025,4 9 0
13.12.2018 23:00:00 5,8 2,3 32 18 47 25 E 1025,2 10 0
13.12.2018 22:00:00 5,5 2,3 40 21 - - E 1025,0 10 0
13.12.2018 21:00:00 4,4 0,7 32 18 50 27 ESE 1024,9 10 0
13.12.2018 20:00:00 5,2 0,8 25 14 - - E 1024,9 10 0
13.12.2018 19:00:00 4,4 0,1 22 12 - - E 1025,0 10 0
13.12.2018 18:00:00 4,4 -0,1 18 10 - - E 1025,0 10 0
13.12.2018 17:00:00 4,2 -1,3 25 14 - - E 1025,1 10 0
13.12.2018 16:00:00 3,9 0,7 29 16 - - ENE 1024,8 10 0
13.12.2018 15:00:00 4,1 0,4 25 14 - - ENE 1025,0 10 0
13.12.2018 14:00:00 4,2 0,7 25 14 - - ENE 1025,3 10 0
13.12.2018 13:00:00 4,5 0,4 29 16 - - E 1025,7 10 0
13.12.2018 12:00:00 4,9 0,7 32 18 - - E 1025,9 10 0
13.12.2018 11:00:00 5,0 0,7 32 18 - - E 1026,2 10 0
13.12.2018 10:00:00 4,7 1,5 32 18 - - E 1026,4 10 0
13.12.2018 09:00:00 4,8 1,2 32 18 47 25 E 1026,1 10 0
13.12.2018 08:00:00 5,2 2,1 32 18 - - ESE 1026,0 10 0
13.12.2018 07:00:00 5,4 1,9 32 18 - - ESE 1025,7 10 0
13.12.2018 06:00:00 5,5 0,8 36 19 47 25 ESE 1025,8 10 0
13.12.2018 05:00:00 5,8 1,1 36 19 47 25 ESE 1026,1 10 0
13.12.2018 04:00:00 5,5 1,5 32 18 - - ESE 1026,4 10 0
13.12.2018 03:00:00 5,6 2,7 29 16 - - ESE 1026,6 10 0
13.12.2018 02:00:00 - - - - - - - - - -
13.12.2018 01:00:00 5,5 0,7 25 14 - - ESE 1027,2 10 0
13.12.2018 00:00:00 5,4 0,4 32 18 - - ESE 1027,3 10 0
12.12.2018 23:00:00 6,0 5,5 32 18 - - E 1027,4 10 -
12.12.2018 22:00:00 - - - - - - - - - -
12.12.2018 21:00:00 5,9 0,2 25 14 - - E 1027,8 10 0
12.12.2018 20:00:00 5,9 1,6 29 16 - - E 1027,9 10 0
12.12.2018 19:00:00 6,2 3,3 32 18 - - E 1027,5 10 0
12.12.2018 18:00:00 6,4 3,1 36 19 - - E 1027,4 10 0
12.12.2018 17:00:00 5,3 2,5 29 16 - - E 1027,5 10 0
12.12.2018 16:00:00 5,9 2,2 18 10 - - ESE 1027,4 10 0
12.12.2018 15:00:00 5,8 1,7 18 10 - - E 1027,5 10 0
12.12.2018 14:00:00 5,6 2,8 18 10 - - ESE 1027,7 10 0
12.12.2018 13:00:00 5,8 3,1 22 12 - - ESE 1028,0 10 12
12.12.2018 12:00:00 5,4 2,4 25 14 - - E 1028,2 10 18
12.12.2018 11:00:00 5,5 2,0 14 8 - - E 1028,1 10 24
12.12.2018 10:00:00 5,8 0,3 22 12 - - ENE 1027,9 10 0
12.12.2018 09:00:00 5,7 0,3 22 12 - - ENE 1027,7 10 0
12.12.2018 08:00:00 5,9 0,8 22 12 - - ENE 1027,4 10 0
12.12.2018 07:00:00 5,8 0,6 11 6 - - E 1027,1 10 0
12.12.2018 06:00:00 5,9 1,4 18 10 - - ENE 1026,8 10 0
12.12.2018 05:00:00 6,0 1,6 18 10 - - NE 1026,3 10 0
12.12.2018 04:00:00 5,9 1,5 22 12 - - ENE 1026,1 10 0
12.12.2018 03:00:00 6,0 1,5 14 8 - - E 1025,9 10 0
12.12.2018 02:00:00 6,3 2,1 22 12 - - NE 1025,5 10 0
12.12.2018 01:00:00 6,7 2,9 22 12 - - NE 1025,4 10 0
12.12.2018 00:00:00 7,1 2,5 18 10 - - ENE 1024,9 10 0
11.12.2018 23:00:00 7,3 3,2 25 14 - - NE 1024,8 10 0
11.12.2018 22:00:00 7,1 2,8 22 12 - - NE 1024,7 10 0
11.12.2018 21:00:00 7,7 2,1 22 12 - - NNE 1024,3 10 0
11.12.2018 20:00:00 7,9 1,9 25 14 - - NNE 1024,2 10 0
11.12.2018 19:00:00 8,1 0,6 22 12 - - NNE 1023,8 10 0
11.12.2018 18:00:00 7,8 1,1 25 14 - - N 1023,4 10 0
11.12.2018 17:00:00 8,3 1,8 25 14 - - N 1023,0 10 0
11.12.2018 16:00:00 8,0 2,9 25 14 - - NNW 1022,6 10 60
11.12.2018 15:00:00 8,0 2,3 29 16 - - NNW 1022,5 10 60
11.12.2018 14:00:00 8,0 2,1 29 16 - - NNW 1022,4 10 48
11.12.2018 13:00:00 7,9 2,3 32 18 - - NNW 1021,9 10 60
11.12.2018 12:00:00 8,0 2,4 36 19 - - NNW 1022,0 10 48
11.12.2018 11:00:00 8,1 3,3 36 19 50 27 NNW 1021,7 10 60
11.12.2018 10:00:00 8,2 2,8 36 19 - - NNW 1021,4 10 30
11.12.2018 09:00:00 8,2 2,5 43 23 61 33 NNW 1020,9 10 0
11.12.2018 08:00:00 8,1 2,6 50 27 65 35 NNW 1020,6 10 0
11.12.2018 07:00:00 7,6 3,3 47 25 - - NW 1020,0 10 0
11.12.2018 06:00:00 8,4 2,3 47 25 72 39 NNW 1019,8 10 0
11.12.2018 05:00:00 7,7 2,8 50 27 72 39 NNW 1019,6 10 0
11.12.2018 04:00:00 7,8 3,9 50 27 - - NW 1019,4 10 0
11.12.2018 03:00:00 7,9 2,8 43 23 79 43 NW 1019,3 8 0
11.12.2018 02:00:00 7,0 2,7 50 27 72 39 NW 1019,3 10 0
11.12.2018 01:00:00 8,1 2,7 54 29 - - NW 1019,3 10 0
11.12.2018 00:00:00 7,3 3,3 58 31 76 41 NW 1019,1 10 0
10.12.2018 23:00:00 8,2 1,2 61 33 76 41 NW 1018,4 10 0
10.12.2018 22:00:00 8,2 3,2 61 33 - - NW 1018,6 10 0
10.12.2018 21:00:00 8,2 1,9 58 31 76 41 NW 1018,4 10 0
10.12.2018 20:00:00 8,5 2,7 58 31 83 45 NNW 1018,1 10 0
10.12.2018 19:00:00 8,5 2,5 61 33 - - NW 1017,5 10 0
10.12.2018 18:00:00 8,4 2,9 65 35 90 49 NW 1016,8 10 0
10.12.2018 17:00:00 8,0 3,6 65 35 83 45 NW 1016,8 10 0
10.12.2018 16:00:00 8,3 3,7 61 33 - - NW 1016,4 9 0
10.12.2018 15:00:00 8,0 3,2 61 33 79 43 NW 1015,4 7 12
10.12.2018 14:00:00 7,8 3,2 58 31 90 49 NW 1015,2 0,7 6
10.12.2018 13:00:00 8,1 0,7 61 33 - - NW 1015,0 0,8 36
10.12.2018 12:00:00 7,8 2,4 58 31 76 41 NW 1015,2 10 48
10.12.2018 11:00:00 7,7 1,8 54 29 79 43 WNW 1014,7 9 42
10.12.2018 10:00:00 7,0 2,6 54 29 - - WNW 1014,5 10 12
10.12.2018 09:00:00 6,4 2,5 58 31 79 43 NW 1013,9 7 0
10.12.2018 08:00:00 7,5 0,2 58 31 79 43 NW 1013,5 10 0
10.12.2018 07:00:00 7,5 0,8 61 33 - - NW 1012,9 10 0
10.12.2018 06:00:00 4,7 2,6 54 29 86 47 NW 1012,5 6 0
10.12.2018 05:00:00 7,5 0,9 54 29 94 51 NW 1011,7 10 0
10.12.2018 04:00:00 7,7 1,1 58 31 - - NW 1011,5 10 0
10.12.2018 03:00:00 6,9 1,7 50 27 86 47 WNW 1011,2 10 0
10.12.2018 02:00:00 7,9 2,5 50 27 83 45 NW 1010,3 10 0
10.12.2018 01:00:00 6,4 1,0 58 31 - - NW 1009,5 5 0
10.12.2018 00:00:00 7,8 2,4 58 31 72 39 NW 1008,6 10 0
09.12.2018 23:00:00 7,2 2,9 58 31 79 43 NW 1007,6 10 0
09.12.2018 22:00:00 7,3 2,8 50 27 - - NW 1007,2 8 0
09.12.2018 21:00:00 7,9 3,1 58 31 83 45 WNW 1006,1 10 0
09.12.2018 20:00:00 8,2 2,4 61 33 79 43 NW 1004,8 10 0
09.12.2018 19:00:00 8,7 1,5 58 31 - - NW 1003,5 10 0
09.12.2018 18:00:00 8,9 1,5 58 31 79 43 NW 1001,9 10 0
09.12.2018 17:00:00 7,7 3,1 61 33 86 47 NW 1000,8 8 0
09.12.2018 16:00:00 9,0 4,8 47 25 - - NW 999,0 10 0
09.12.2018 15:00:00 8,9 4,3 58 31 72 39 NW 997,4 3,1 36
09.12.2018 14:00:00 9,2 5,3 50 27 72 39 NW 995,7 1,8 18
09.12.2018 13:00:00 9,4 5,2 50 27 - - WNW 994,6 0,8 18
09.12.2018 12:00:00 8,9 5,3 54 29 68 37 WNW 993,2 4,2 18
09.12.2018 11:00:00 9,4 5,9 50 27 61 33 WNW 992,0 10 36
09.12.2018 10:00:00 9,1 6,7 47 25 - - WNW 990,7 10 0
09.12.2018 09:00:00 8,6 6,3 50 27 61 33 WNW 989,8 10 0
09.12.2018 08:00:00 8,9 6,8 47 25 68 37 W 988,4 10 0
09.12.2018 07:00:00 9,4 6,5 47 25 - - W 987,5 10 0
09.12.2018 06:00:00 9,3 6,6 43 23 61 33 W 986,8 10 0
09.12.2018 05:00:00 8,6 5,9 47 25 79 43 W 986,2 10 0
09.12.2018 04:00:00 9,2 6,8 40 21 - - W 985,9 10 0
09.12.2018 03:00:00 9,2 6,5 43 23 50 27 W 985,4 10 0
09.12.2018 02:00:00 8,8 6,0 32 18 - - W 985,2 10 0
09.12.2018 01:00:00 8,4 6,2 32 18 - - WSW 985,1 10 0
09.12.2018 00:00:00 8,9 6,8 36 19 47 25 WSW 985,1 10 0
08.12.2018 23:00:00 9,2 6,1 32 18 - - WSW 985,5 10 0
08.12.2018 22:00:00 9,1 5,4 32 18 - - WSW 985,9 10 0
08.12.2018 21:00:00 9,7 6,9 36 19 65 35 WSW 987,4 10 0
08.12.2018 20:00:00 9,7 6,1 50 27 76 41 WSW 988,8 10 0
08.12.2018 19:00:00 9,8 6,8 58 31 - - WSW 989,7 10 0
08.12.2018 18:00:00 9,8 7,1 58 31 79 43 WSW 990,5 9 0
08.12.2018 17:00:00 9,8 6,9 61 33 79 43 WSW 990,7 8 0
08.12.2018 16:00:00 10,1 6,4 65 35 - - W 990,5 10 0
08.12.2018 15:00:00 10,1 6,9 68 37 90 49 W 990,3 10 0
08.12.2018 14:00:00 9,9 7,8 65 35 94 51 W 990,2 2,3 0
08.12.2018 13:00:00 9,6 7,6 61 33 - - W 990,1 4,5 6
08.12.2018 12:00:00 10,3 7,4 61 33 79 43 WSW 990,1 10 0

tt = Température de l'air
td = dewpoint
ff = Vitesse du vent
fx = gusts
dd = Direction du vent
ppp = reduced air pressure
vv = visibility
sd = Ensoleillement

stations d'obs. à proximité